Flight Track Log - Related Links

Times and Time Zones

All times are in EDT time to prevent confusion due to time zone crossing. See the AAY875 flight status page for this flight to view local times or setup timezone preferences in your user account.

Time Position Orientation Groundspeed Altitude Reporting Facility
EDT Latitude Longitude Course Direction KTS MPH feet Rate Location/Type
Thu 05:26:18 PM 44.8406 -68.9131 239° Southwest 235 270 3,000  Level Boston Center
Thu 05:27:19 PM 44.7894 -69.0031 231° Southwest 244 281 7,200 3,360 Climbing Boston Center
Thu 05:28:23 PM 44.7578 -69.0856 242° Southwest 243 280 10,000 2,112 Climbing Boston Center
Thu 05:29:24 PM 44.7172 -69.1853 240° Southwest 280 322 11,600 1,587 Climbing Boston Center
Thu 05:30:24 PM 44.6708 -69.3042 241° Southwest 329 379 13,200 2,033 Climbing Boston Center
Thu 05:31:00 PM 44.5405 -69.6170 239° Southwest  Level FlightAware Approximate
Thu 05:31:25 PM 44.6208 -69.4317 241° Southwest 363 418 15,700  Level Boston Center
Thu 05:32:29 PM 44.5433 -69.5392 225° Southwest 386 444 17,700 1,790 Climbing Boston Center
Thu 05:33:29 PM 44.4581 -69.6411 220° Southwest 394 453 19,400 1,600 Climbing Boston Center
Thu 05:34:29 PM 44.3700 -69.7431 220° Southwest 403 464 20,900 1,452 Climbing Boston Center
Thu 05:35:33 PM 44.2825 -69.8542 222° Southwest 418 481 22,400 1,645 Climbing Boston Center
Thu 05:36:33 PM 44.2003 -69.9694 225° Southwest 419 482 24,300 1,694 Climbing Boston Center
Thu 05:37:37 PM 44.1131 -70.0772 222° Southwest 418 481 25,900 1,645 Climbing Boston Center
Thu 05:38:37 PM 44.0278 -70.1808 221° Southwest 412 474 27,700 1,240 Climbing Boston Center
Thu 05:39:38 PM 43.9403 -70.2872 221° Southwest 412 474 28,400 1,131 Climbing Boston Center
Thu 05:40:39 PM 43.8553 -70.3981 223° Southwest 419 482 30,000 1,536 Climbing Boston Center
Thu 05:41:43 PM 43.7592 -70.5242 223° Southwest 397 457 31,600 960 Climbing Boston Center
Thu 05:42:44 PM 43.6764 -70.6233 221° Southwest 395 455 32,000 197 Climbing Boston Center
Thu 05:43:45 PM 43.5894 -70.7214 219° Southwest 397 457 32,000  Level Boston Center
Thu 05:44:46 PM 43.5156 -70.8192 224° Southwest 405 466 32,000  Level Boston Center
Thu 05:45:49 PM 43.4336 -70.9261 223° Southwest 407 468 32,000  Level Boston Center
Thu 05:46:49 PM 43.3442 -71.0297 220° Southwest 407 468 32,000  Level Boston Center
Thu 05:47:50 PM 43.2417 -71.1533 221° Southwest 409 471 32,000  Level Boston Center
Thu 05:48:52 PM 43.1608 -71.2553 223° Southwest 408 470 32,000  Level Boston Center
Thu 05:49:55 PM 43.0725 -71.3589 221° Southwest 406 467 32,000  Level Boston Center
Thu 05:50:56 PM 42.9892 -71.4619 222° Southwest 406 467 32,000  Level Boston Center
Thu 05:51:57 PM 42.9053 -71.5572 220° Southwest 404 465 32,000  Level Boston Center
Thu 05:53:00 PM 42.8192 -71.6631 222° Southwest 410 472 32,000  Level Boston Center
Thu 05:54:02 PM 42.7339 -71.7656 221° Southwest 410 472 32,000  Level Boston Center
Thu 05:55:02 PM 42.6486 -71.8692 222° Southwest 410 472 32,000  Level Boston Center
Thu 05:56:03 PM 42.5444 -71.9883 220° Southwest 409 471 32,000  Level Boston Center
Thu 05:57:04 PM 42.4547 -72.0900 220° Southwest 413 475 32,000  Level Boston Center
Thu 05:58:08 PM 42.3683 -72.1936 222° Southwest 413 475 32,000  Level Boston Center
Thu 05:59:09 PM 42.2828 -72.2953 221° Southwest 410 472 32,000  Level Boston Center
Thu 06:00:10 PM 42.1953 -72.3939 220° Southwest 409 471 32,000  Level Boston Center
Thu 06:01:10 PM 42.1064 -72.4933 220° Southwest 409 471 32,000  Level Boston Center
Thu 06:02:15 PM 42.0203 -72.5953 221° Southwest 410 472 32,000  Level Boston Center
Thu 06:03:15 PM 41.9408 -72.7067 226° Southwest 410 472 32,000  Level Boston Center
Thu 06:04:17 PM 41.8667 -72.8264 230° Southwest 412 474 32,000  Level Boston Center
Thu 06:05:17 PM 41.7906 -72.9394 228° Southwest 411 473 32,000  Level Boston Center
Thu 06:06:18 PM 41.6969 -73.0742 227° Southwest 411 473 32,000  Level Boston Center
Thu 06:07:22 PM 41.6194 -73.1864 227° Southwest 411 473 32,000  Level Boston Center
Thu 06:08:22 PM 41.5458 -73.3025 230° Southwest 411 473 32,000  Level Boston Center
Thu 06:09:26 PM 41.4669 -73.4181 228° Southwest 409 471 32,000  Level Boston Center
Thu 06:10:27 PM 41.3889 -73.5283 227° Southwest 410 472 32,000  Level Boston Center
Thu 06:11:27 PM 41.3114 -73.6422 228° Southwest 416 479 32,000  Level Boston Center
Thu 06:12:28 PM 41.2350 -73.7569 228° Southwest 416 479 32,000  Level Boston Center
Thu 06:13:29 PM 41.1575 -73.8711 228° Southwest 419 482 32,000  Level Boston Center
Thu 06:14:32 PM 41.0622 -74.0061 227° Southwest 419 482 32,000  Level Boston Center
Thu 06:15:33 PM 40.9814 -74.1203 227° Southwest 423 487 32,000  Level Boston Center
Thu 06:16:35 PM 40.9039 -74.2369 229° Southwest 423 487 32,000 -53 Level Boston Center
Thu 06:17:26 PM 40.8306 -74.3417 227° Southwest 430 495 31,900  Descending New York Center
Thu 06:18:26 PM 40.7500 -74.4581 228° Southwest 430 495 32,000 50 Climbing New York Center
Thu 06:19:26 PM 40.6814 -74.5803 234° Southwest 425 489 32,000 -50 Level New York Center
Thu 06:20:26 PM 40.6089 -74.6992 231° Southwest 425 489 31,900  Descending New York Center
Thu 06:21:26 PM 40.5319 -74.8150 229° Southwest 425 489 32,000 50 Climbing New York Center
Thu 06:22:26 PM 40.4489 -74.9247 225° Southwest 431 496 32,000  Level New York Center
Thu 06:23:26 PM 40.3697 -75.0397 228° Southwest 431 496 32,000  Level New York Center
Thu 06:24:26 PM 40.2906 -75.1547 228° Southwest 431 496 32,000  Level New York Center
Thu 06:25:26 PM 40.2114 -75.2664 227° Southwest 431 496 32,000 -50 Level New York Center
Thu 06:26:26 PM 40.1297 -75.3778 226° Southwest 426 490 31,900  Descending New York Center
Thu 06:27:26 PM 40.0483 -75.4892 226° Southwest 426 490 32,000 50 Climbing New York Center
Thu 06:28:26 PM 39.9686 -75.6056 228° Southwest 426 490 32,000  Level New York Center
Thu 06:29:26 PM 39.8889 -75.7192 228° Southwest 426 490 32,000  Level New York Center
Thu 06:30:26 PM 39.8239 -75.8256 232° Southwest 426 490 32,000  Level New York Center
Thu 06:31:26 PM 39.7519 -75.9444 232° Southwest 426 490 32,000  Level New York Center
Thu 06:33:52 PM 39.5661 -76.2322 230° Southwest 423 487 32,000 -29 Level Washington Center
Thu 06:34:51 PM 39.4903 -76.3500 230° Southwest 423 487 31,900  Descending Washington Center
Thu 06:35:51 PM 39.4186 -76.4647 231° Southwest 423 487 32,000 50 Climbing Washington Center
Thu 06:36:51 PM 39.3408 -76.5792 229° Southwest 430 495 32,000  Level Washington Center
Thu 06:37:52 PM 39.2669 -76.6933 230° Southwest 430 495 32,000  Level Washington Center
Thu 06:38:52 PM 39.1928 -76.8075 230° Southwest 430 495 32,000  Level Washington Center
Thu 06:39:50 PM 39.1186 -76.9239 231° Southwest 425 489 32,000  Level Washington Center
Thu 06:40:50 PM 39.0464 -77.0322 229° Southwest 425 489 32,000  Level Washington Center
Thu 06:41:51 PM 38.9597 -77.1347 223° Southwest 420 483 32,000  Level Washington Center
Thu 06:42:51 PM 38.8689 -77.2286 219° Southwest 420 483 32,000  Level Washington Center
Thu 06:43:52 PM 38.7800 -77.3253 220° Southwest 420 483 32,000  Level Washington Center
Thu 06:44:52 PM 38.6931 -77.4217 221° Southwest 425 489 32,000  Level Washington Center
Thu 06:45:53 PM 38.6039 -77.5203 221° Southwest 425 489 32,000  Level Washington Center
Thu 06:46:50 PM 38.5233 -77.6058 220° Southwest 425 489 32,000  Level Washington Center
Thu 06:47:51 PM 38.4342 -77.7017 220° Southwest 425 489 32,000  Level Washington Center
Thu 06:48:53 PM 38.3469 -77.7969 221° Southwest 425 489 32,000  Level Washington Center
Thu 06:49:50 PM 38.2597 -77.8922 221° Southwest 420 483 32,000  Level Washington Center
Thu 06:50:50 PM 38.1722 -77.9847 220° Southwest 420 483 32,000  Level Washington Center
Thu 06:51:52 PM 38.0828 -78.0819 221° Southwest 420 483 32,000  Level Washington Center
Thu 06:52:52 PM 37.9847 -78.1817 219° Southwest 415 478 32,000  Level Washington Center
Thu 06:53:50 PM 37.8953 -78.2706 218° Southwest 415 478 32,000  Level Washington Center
Thu 06:54:51 PM 37.8100 -78.3492 216° Southwest 421 484 32,000  Level Washington Center
Thu 06:55:52 PM 37.7183 -78.4350 217° Southwest 421 484 32,000  Level Washington Center
Thu 06:56:50 PM 37.6244 -78.5258 217° Southwest 421 484 32,000  Level Washington Center
Thu 06:57:51 PM 37.5325 -78.6139 217° Southwest 426 490 32,000  Level Washington Center
Thu 06:58:51 PM 37.4386 -78.6992 216° Southwest 426 490 32,000  Level Washington Center
Thu 06:59:52 PM 37.3358 -78.7969 217° Southwest 426 490 32,000  Level Washington Center
Thu 07:00:50 PM 37.2417 -78.8817 216° Southwest 426 490 32,000  Level Washington Center
Thu 07:01:52 PM 37.1494 -78.9689 217° Southwest 426 490 32,000  Level Washington Center
Thu 07:02:52 PM 37.0553 -79.0558 216° Southwest 426 490 32,000  Level Washington Center
Thu 07:04:32 PM 36.8950 -79.1983 215° Southwest 422 486 32,000  Level Atlanta Center
Thu 07:05:32 PM 36.8003 -79.2844 216° Southwest 422 486 32,000  Level Atlanta Center
Thu 07:06:32 PM 36.7081 -79.3753 218° Southwest 422 486 32,000  Level Atlanta Center
Thu 07:07:32 PM 36.6131 -79.4611 216° Southwest 422 486 32,000  Level Atlanta Center
Thu 07:08:32 PM 36.5161 -79.5467 215° Southwest 422 486 32,000  Level Atlanta Center
Thu 07:09:32 PM 36.4314 -79.6211 215° Southwest 422 486 32,000  Level Atlanta Center
Thu 07:10:32 PM 36.3386 -79.7114 218° Southwest 422 486 32,000  Level Atlanta Center
Thu 07:11:32 PM 36.2436 -79.7961 216° Southwest 422 486 32,000  Level Atlanta Center
Thu 07:12:32 PM 36.1464 -79.8811 215° Southwest 422 486 32,000  Level Atlanta Center
Thu 07:13:32 PM 36.0300 -79.9564 208° Southwest 422 486 32,000  Level Atlanta Center
Thu 07:14:32 PM 35.9169 -80.0108 201° Southwest 428 493 32,000  Level Atlanta Center
Thu 07:15:32 PM 35.8022 -80.0675 202° Southwest 436 502 32,000  Level Atlanta Center
Thu 07:16:32 PM 35.6936 -80.1292 205° Southwest 441 507 32,000  Level Atlanta Center
Thu 07:17:32 PM 35.5931 -80.1850 204° Southwest 441 507 32,000  Level Atlanta Center
Thu 07:18:32 PM 35.4803 -80.2439 203° Southwest 441 507 32,000  Level Atlanta Center
Thu 07:19:32 PM 35.3672 -80.3000 202° Southwest 441 507 32,000  Level Atlanta Center
Thu 07:20:32 PM 35.2458 -80.3589 202° Southwest 441 507 32,000  Level Atlanta Center
Thu 07:21:32 PM 35.1328 -80.4197 204° Southwest 441 507 32,000  Level Atlanta Center
Thu 07:23:23 PM 34.9386 -80.5197 203° Southwest 445 512 32,000  Level Jacksonville Center
Thu 07:24:23 PM 34.8269 -80.5761 203° Southwest 445 512 32,000  Level Jacksonville Center
Thu 07:25:23 PM 34.7175 -80.6319 203° Southwest 434 499 32,000  Level Jacksonville Center
Thu 07:26:23 PM 34.6036 -80.6881 202° Southwest 434 499 32,000  Level Jacksonville Center
Thu 07:27:23 PM 34.4878 -80.7414 201° Southwest 444 511 32,000  Level Jacksonville Center
Thu 07:28:23 PM 34.3700 -80.8019 203° Southwest 450 518 32,000  Level Jacksonville Center
Thu 07:29:23 PM 34.2622 -80.8500 200° South 450 518 32,000  Level Jacksonville Center
Thu 07:30:23 PM 34.1503 -80.9028 201° Southwest 434 499 32,000  Level Jacksonville Center
Thu 07:31:23 PM 34.0386 -80.9578 202° Southwest 434 499 32,000  Level Jacksonville Center
Thu 07:32:23 PM 33.9225 -81.0106 201° Southwest 434 499 32,000  Level Jacksonville Center
Thu 07:33:23 PM 33.7981 -81.0681 201° Southwest 443 510 32,000  Level Jacksonville Center
Thu 07:34:23 PM 33.6842 -81.1231 202° Southwest 443 510 32,000  Level Jacksonville Center
Thu 07:35:23 PM 33.5722 -81.1750 201° Southwest 443 510 32,000  Level Jacksonville Center
Thu 07:36:23 PM 33.4581 -81.2294 202° Southwest 443 510 32,000  Level Jacksonville Center
Thu 07:37:23 PM 33.3442 -81.2839 202° Southwest 443 510 32,000  Level Jacksonville Center
Thu 07:38:23 PM 33.2319 -81.3331 200° South 443 510 32,000  Level Jacksonville Center
Thu 07:39:23 PM 33.1219 -81.3847 201° Southwest 438 504 32,000  Level Jacksonville Center
Thu 07:40:23 PM 33.0119 -81.4336 200° South 438 504 32,000  Level Jacksonville Center
Thu 07:41:23 PM 32.8956 -81.4872 201° Southwest 433 498 32,000  Level Jacksonville Center
Thu 07:42:23 PM 32.7878 -81.5383 202° Southwest 433 498 32,000  Level Jacksonville Center
Thu 07:43:23 PM 32.6881 -81.5819 200° South 433 498 32,000  Level Jacksonville Center
Thu 07:44:23 PM 32.5675 -81.6403 202° Southwest 433 498 32,000  Level Jacksonville Center
Thu 07:45:23 PM 32.4572 -81.6886 200° South 433 498 32,000  Level Jacksonville Center
Thu 07:46:23 PM 32.3594 -81.7269 198° South 433 498 32,000  Level Jacksonville Center
Thu 07:47:23 PM 32.2303 -81.7578 191° South 420 483 32,000  Level Jacksonville Center
Thu 07:48:23 PM 32.1239 -81.7739 187° South 433 498 32,000  Level Jacksonville Center
Thu 07:49:23 PM 31.9928 -81.8050 191° South 433 498 32,000  Level Jacksonville Center
Thu 07:50:23 PM 31.8825 -81.8381 194° South 426 490 32,000  Level Jacksonville Center
Thu 07:51:23 PM 31.7761 -81.8636 192° South 431 496 32,000  Level Jacksonville Center
Thu 07:52:23 PM 31.6469 -81.8919 191° South 436 502 32,000  Level Jacksonville Center
Thu 07:53:23 PM 31.5428 -81.9125 190° South 425 489 32,000  Level Jacksonville Center
Thu 07:54:23 PM 31.4175 -81.9431 192° South 425 489 32,000 -150 Level Jacksonville Center
Thu 07:55:23 PM 31.3031 -81.9736 193° South 425 489 31,700 -600 Descending Jacksonville Center
Thu 07:56:23 PM 31.1883 -82.0014 192° South 430 495 30,800 -900 Descending Jacksonville Center
Thu 07:57:23 PM 31.0694 -82.0242 189° South 430 495 29,900 -1,000 Descending Jacksonville Center
Thu 07:58:23 PM 30.9506 -82.0519 191° South 436 502 28,800 -950 Descending Jacksonville Center
Thu 07:59:23 PM 30.8422 -82.0797 192° South 441 507 28,000 -400 Descending Jacksonville Center
Thu 08:00:23 PM 30.7214 -82.1072 191° South 441 507 28,000 -50 Level Jacksonville Center
Thu 08:01:23 PM 30.6025 -82.1322 190° South 441 507 27,900 -50 Descending Jacksonville Center
Thu 08:02:23 PM 30.4689 -82.1575 189° South 446 513 27,900 -100 Level Jacksonville Center
Thu 08:03:23 PM 30.3481 -82.1872 192° South 451 519 27,700 -450 Descending Jacksonville Center
Thu 08:04:23 PM 30.2333 -82.2122 191° South 438 504 27,000 -350 Descending Jacksonville Center
Thu 08:05:23 PM 30.1167 -82.2394 191° South 422 486 27,000 -50 Level Jacksonville Center
Thu 08:06:23 PM 30.0122 -82.2642 192° South 431 496 26,900 -200 Descending Jacksonville Center
Thu 08:07:23 PM 29.8997 -82.2889 191° South 426 490 26,600 -650 Descending Jacksonville Center
Thu 08:08:23 PM 29.7850 -82.3158 192° South 426 490 25,600 -800 Descending Jacksonville Center
Thu 08:09:23 PM 29.6619 -82.3428 191° South 426 490 25,000 -400 Descending Jacksonville Center
Thu 08:10:23 PM 29.5492 -82.3556 186° South 416 479 24,800 -750 Descending Jacksonville Center
Thu 08:11:23 PM 29.4322 -82.3442 175° South 416 479 23,500 -1,350 Descending Jacksonville Center
Thu 08:12:23 PM 29.3194 -82.3256 172° South 416 479 22,100 -1,200 Descending Jacksonville Center
Thu 08:13:23 PM 29.2047 -82.3144 175° South 422 486 21,100 -1,100 Descending Jacksonville Center
Thu 08:14:23 PM 29.0939 -82.3033 175° South 417 480 19,900 -1,600 Descending Jacksonville Center
Thu 08:15:23 PM 28.9853 -82.2897 174° South 412 474 17,900 -2,373 Descending Jacksonville Center
Thu 08:17:20 PM 28.7667 -82.2667 175° South 390 449 12,900 -2,034 Descending Tampa TRACON
Thu 08:18:20 PM 28.6833 -82.2500 170° South 314 361 11,900 -1,100 Descending Tampa TRACON
Thu 08:19:20 PM 28.6000 -82.2833 199° South 284 327 10,700 -950 Descending Tampa TRACON
Thu 08:20:20 PM 28.5833 -82.3667 257° West 272 313 10,000 -350 Descending Tampa TRACON
Thu 08:21:20 PM 28.5667 -82.4500 257° West 278 320 10,000 -500 Level Tampa TRACON
Thu 08:22:20 PM 28.5333 -82.5333 246° West 277 319 9,000 -1,300 Descending Tampa TRACON
Thu 08:23:20 PM 28.5167 -82.6167 257° West 271 312 7,400 -1,550 Descending Tampa TRACON
Thu 08:24:20 PM 28.4667 -82.6667 221° Southwest 259 298 5,900 -1,550 Descending Tampa TRACON
Thu 08:25:20 PM 28.4000 -82.7000 204° Southwest 252 290 4,300 -1,526 Descending Tampa TRACON
Thu 08:26:14 PM 28.3333 -82.7333 204° Southwest 252 290 3,000 -650 Descending Tampa TRACON
Thu 08:27:20 PM 28.2833 -82.7667 210° Southwest 182 209 3,000  Level Tampa TRACON
Thu 08:28:14 PM 28.2333 -82.7500 164° South 167 192 3,000  Level Tampa TRACON
Thu 08:29:20 PM 28.1833 -82.7333 164° South 177 204 3,000 -142 Level Tampa TRACON
Thu 08:30:21 PM 28.1333 -82.7333 180° South 176 203 2,700 -198 Descending Tampa TRACON
Thu 08:31:21 PM 28.1000 -82.7167 156° South 172 198 2,600 -200 Descending Tampa TRACON
Thu 08:32:21 PM 28.0500 -82.7167 180° South 148 170 2,300 -450 Descending Tampa TRACON
Thu 08:33:21 PM 28.0167 -82.7000 156° South 130 150 1,700 -650 Descending Tampa TRACON
Thu 08:34:21 PM 27.9833 -82.7000 180° South 127 146 1,000 -700 Descending Tampa TRACON
Thu 08:35:21 PM 27.9333 -82.7000 180° South 137 158 300 -700 Descending Tampa TRACON

Login

Don't have an account? Register now (free) for customized features, flight alerts, and more!